| time (UTC) | temp C | wind direction | speed KPH | gust KPH | rain 1hr cm | rain 24hr cm | rain mn cm | humidity % | barometer mb |
| 20260509161531 | 16 | 225 | 0.0 | 4.8 | 0.00 | 0.00 | 0.00 | 53 | 1020.3 |
| 20260509160030 | 15 | 257 | 0.0 | 8.0 | 0.00 | 0.00 | 0.00 | 54 | 1020.3 |
| 20260509154526 | 15 | 271 | 1.6 | 4.8 | 0.00 | 0.00 | 0.00 | 55 | 1020.4 |
| 20260509153025 | 15 | 204 | 3.2 | 6.4 | 0.00 | 0.00 | 0.00 | 56 | 1020.1 |
| 20260509151521 | 14 | 176 | 4.8 | 8.0 | 0.00 | 0.00 | 0.00 | 57 | 1020.1 |
| 20260509150017 | 13 | 210 | 1.6 | 6.4 | 0.00 | 0.00 | 0.00 | 65 | 1020.3 |
| 20260509144516 | 12 | 245 | 4.8 | 6.4 | 0.00 | 0.00 | 0.00 | 70 | 1020.3 |
| 20260509143014 | 13 | 180 | 0.0 | 3.2 | 0.00 | 0.00 | 0.00 | 72 | 1020.2 |
| 20260509141517 | 10 | 203 | 1.6 | 4.8 | 0.00 | 0.00 | 0.00 | 80 | 1020.1 |
| 20260509140011 | 9 | 115 | 0.0 | 1.6 | 0.00 | 0.00 | 0.00 | 79 | 1020.3 |
| 20260509134509 | 8 | 115 | 0.0 | 3.2 | 0.00 | 0.00 | 0.00 | 78 | 1020.3 |
| 20260509133009 | 8 | 115 | 0.0 | 3.2 | 0.00 | 0.00 | 0.00 | 77 | 1020.3 |
| 20260509131510 | 7 | 115 | 0.0 | 1.6 | 0.00 | 0.00 | 0.00 | 79 | 1020.1 |
| 20260509130012 | 6 | 115 | 0.0 | 3.2 | 0.00 | 0.00 | 0.00 | 83 | 1020.1 |
| 20260509124502 | 6 | 115 | 1.6 | 4.8 | 0.00 | 0.00 | 0.00 | 81 | 1019.8 |
| 20260509123002 | 8 | 138 | 6.4 | 9.7 | 0.00 | 0.00 | 0.00 | 74 | 1019.8 |
| 20260509121600 | 7 | 139 | 1.6 | 4.8 | 0.00 | 0.00 | 0.00 | 80 | 1019.9 |
| 20260509120058 | 7 | 141 | 1.6 | 8.0 | 0.00 | 0.00 | 0.00 | 79 | 1019.8 |
| 20260509114559 | 8 | 140 | 4.8 | 9.7 | 0.00 | 0.00 | 0.00 | 77 | 1019.7 |
| 20260509113052 | 7 | 143 | 3.2 | 6.4 | 0.00 | 0.00 | 0.00 | 77 | 1019.9 |
| 20260509111551 | 8 | 146 | 0.0 | 8.0 | 0.00 | 0.00 | 0.00 | 75 | 1019.8 |
| 20260509110054 | 9 | 150 | 8.0 | 11.3 | 0.00 | 0.00 | 0.00 | 73 | 1019.7 |
| 20260509104546 | 9 | 94 | 4.8 | 9.7 | 0.00 | 0.00 | 0.00 | 71 | 1019.9 |
| 20260509103044 | 8 | 148 | 8.0 | 11.3 | 0.00 | 0.00 | 0.00 | 73 | 1019.7 |
| 20260509101543 | 9 | 142 | 4.8 | 9.7 | 0.00 | 0.00 | 0.00 | 70 | 1019.6 |
| 20260509100044 | 10 | 143 | 3.2 | 6.4 | 0.00 | 0.00 | 0.00 | 71 | 1019.8 |
| 20260509094540 | 9 | 167 | 1.6 | 8.0 | 0.00 | 0.00 | 0.00 | 72 | 1019.6 |
| 20260509093038 | 10 | 107 | 3.2 | 6.4 | 0.00 | 0.00 | 0.00 | 68 | 1019.6 |
| 20260509091538 | 11 | 198 | 11.3 | 17.7 | 0.00 | 0.00 | 0.00 | 64 | 1019.4 |
| 20260509090035 | 11 | 174 | 8.0 | 14.5 | 0.00 | 0.00 | 0.00 | 65 | 1019.4 |
| 20260509084539 | 10 | 159 | 9.7 | 12.9 | 0.00 | 0.00 | 0.00 | 69 | 1019.3 |
| 20260509083035 | 9 | 141 | 8.0 | 12.9 | 0.00 | 0.00 | 0.00 | 72 | 1019.4 |
| 20260509081532 | 9 | 134 | 3.2 | 12.9 | 0.00 | 0.00 | 0.00 | 71 | 1019.3 |
| 20260509080040 | 10 | 137 | 4.8 | 9.7 | 0.00 | 0.00 | 0.00 | 69 | 1019.2 |
| 20260509074527 | 10 | 127 | 1.6 | 8.0 | 0.00 | 0.00 | 0.00 | 69 | 1019.1 |
| 20260509073037 | 12 | 125 | 4.8 | 9.7 | 0.00 | 0.00 | 0.00 | 62 | 1019.0 |
| 20260509071518 | 12 | 166 | 8.0 | 14.5 | 0.00 | 0.00 | 0.00 | 58 | 1018.8 |
| 20260509070019 | 13 | 178 | 8.0 | 16.1 | 0.00 | 0.00 | 0.00 | 57 | 1018.6 |
| 20260509064514 | 13 | 174 | 11.3 | 16.1 | 0.00 | 0.00 | 0.00 | 57 | 1018.6 |
| 20260509063013 | 13 | 184 | 9.7 | 17.7 | 0.00 | 0.00 | 0.00 | 54 | 1018.6 |
| 20260509061512 | 13 | 203 | 11.3 | 19.3 | 0.00 | 0.00 | 0.00 | 54 | 1018.5 |
| 20260509060016 | 14 | 223 | 12.9 | 19.3 | 0.00 | 0.00 | 0.00 | 52 | 1018.4 |
| 20260509054518 | 14 | 167 | 9.7 | 24.1 | 0.00 | 0.00 | 0.00 | 52 | 1018.4 |
| 20260509053013 | 14 | 205 | 8.0 | 17.7 | 0.00 | 0.00 | 0.00 | 51 | 1018.2 |
| 20260509051506 | 15 | 174 | 12.9 | 20.9 | 0.00 | 0.00 | 0.00 | 48 | 1018.1 |
| 20260509050006 | 15 | 187 | 9.7 | 20.9 | 0.00 | 0.00 | 0.00 | 48 | 1017.9 |
| 20260509044503 | 15 | 244 | 9.7 | 19.3 | 0.00 | 0.00 | 0.00 | 45 | 1017.7 |
| 20260509043001 | 15 | 191 | 11.3 | 24.1 | 0.00 | 0.00 | 0.00 | 44 | 1017.5 |
| 20260509041600 | 15 | 240 | 4.8 | 20.9 | 0.00 | 0.00 | 0.00 | 44 | 1017.3 |
| 20260509040107 | 16 | 238 | 6.4 | 16.1 | 0.00 | 0.00 | 0.00 | 44 | 1017.2 |
| 20260509034556 | 16 | 207 | 11.3 | 16.1 | 0.00 | 0.00 | 0.00 | 43 | 1016.8 |
| 20260509033055 | 16 | 193 | 6.4 | 16.1 | 0.00 | 0.00 | 0.00 | 43 | 1016.7 |
| 20260509031552 | 17 | 193 | 11.3 | 19.3 | 0.00 | 0.00 | 0.00 | 40 | 1016.2 |
| 20260509030050 | 17 | 199 | 11.3 | 20.9 | 0.00 | 0.00 | 0.00 | 38 | 1015.7 |
| 20260509024548 | 18 | 262 | 19.3 | 32.2 | 0.00 | 0.00 | 0.00 | 35 | 1015.6 |
| 20260509023048 | 19 | 239 | 22.5 | 38.6 | 0.00 | 0.00 | 0.00 | 34 | 1015.4 |
| 20260509021547 | 20 | 255 | 20.9 | 43.5 | 0.00 | 0.00 | 0.00 | 33 | 1015.2 |
| 20260509020047 | 20 | 265 | 24.1 | 38.6 | 0.00 | 0.00 | 0.00 | 32 | 1015.0 |
| 20260509014546 | 21 | 245 | 37.0 | 49.9 | 0.00 | 0.00 | 0.00 | 30 | 1015.0 |
| 20260509013058 | 21 | 272 | 25.7 | 43.5 | 0.00 | 0.00 | 0.00 | 29 | 1014.7 |
| 20260509011545 | 21 | 236 | 24.1 | 45.1 | 0.00 | 0.00 | 0.00 | 26 | 1014.7 |
| 20260509010044 | 21 | 255 | 32.2 | 45.1 | 0.00 | 0.00 | 0.00 | 25 | 1014.8 |
| 20260509004607 | 22 | 257 | 32.2 | 49.9 | 0.00 | 0.00 | 0.00 | 25 | 1014.9 |
| 20260509003048 | 22 | 232 | 35.4 | 49.9 | 0.00 | 0.00 | 0.00 | 25 | 1015.1 |
| 20260509001543 | 22 | 271 | 30.6 | 48.3 | 0.00 | 0.00 | 0.00 | 25 | 1014.9 |
| 20260509000042 | 22 | 263 | 30.6 | 45.1 | 0.00 | 0.00 | 0.00 | 23 | 1015.0 |
| 20260508234545 | 22 | 252 | 27.4 | 43.5 | 0.00 | 0.00 | 0.00 | 21 | 1014.9 |
| 20260508233040 | 22 | 250 | 29.0 | 43.5 | 0.00 | 0.00 | 0.00 | 22 | 1014.9 |
| 20260508231539 | 22 | 229 | 30.6 | 53.1 | 0.00 | 0.00 | 0.00 | 18 | 1014.9 |
| 20260508230052 | 22 | 269 | 24.1 | 41.8 | 0.00 | 0.00 | 0.00 | 22 | 1014.8 |
| 20260508224538 | 22 | 254 | 24.1 | 40.2 | 0.00 | 0.00 | 0.00 | 20 | 1014.8 |
| 20260508223036 | 22 | 259 | 29.0 | 38.6 | 0.00 | 0.00 | 0.00 | 21 | 1014.9 |
| 20260508221537 | 22 | 253 | 22.5 | 40.2 | 0.00 | 0.00 | 0.00 | 24 | 1014.9 |
| 20260508220034 | 22 | 249 | 25.7 | 37.0 | 0.00 | 0.00 | 0.00 | 24 | 1014.8 |
| 20260508214534 | 22 | 273 | 27.4 | 37.0 | 0.00 | 0.00 | 0.00 | 24 | 1014.9 |
| 20260508213031 | 22 | 262 | 22.5 | 33.8 | 0.00 | 0.00 | 0.00 | 26 | 1014.9 |
| 20260508211534 | 21 | 285 | 24.1 | 35.4 | 0.00 | 0.00 | 0.00 | 31 | 1015.0 |
| 20260508210035 | 21 | 258 | 27.4 | 43.5 | 0.00 | 0.00 | 0.00 | 30 | 1015.0 |
| 20260508204529 | 22 | 285 | 25.7 | 43.5 | 0.00 | 0.00 | 0.00 | 34 | 1014.7 |
| 20260508203028 | 22 | 288 | 29.0 | 38.6 | 0.00 | 0.00 | 0.00 | 32 | 1014.7 |
| 20260508201527 | 23 | 245 | 17.7 | 27.4 | 0.00 | 0.00 | 0.00 | 28 | 1014.3 |
| 20260508200036 | 22 | 290 | 4.8 | 12.9 | 0.00 | 0.00 | 0.00 | 32 | 1014.2 |
| 20260508194522 | 21 | 259 | 4.8 | 11.3 | 0.00 | 0.00 | 0.00 | 30 | 1014.4 |
| 20260508193022 | 21 | 269 | 6.4 | 16.1 | 0.00 | 0.00 | 0.00 | 33 | 1014.4 |
| 20260508191524 | 21 | 214 | 1.6 | 14.5 | 0.00 | 0.00 | 0.00 | 31 | 1014.6 |
| 20260508190021 | 21 | 241 | 4.8 | 24.1 | 0.00 | 0.00 | 0.00 | 31 | 1014.9 |
| 20260508184528 | 20 | 207 | 4.8 | 12.9 | 0.00 | 0.00 | 0.00 | 38 | 1015.0 |
| 20260508183014 | 19 | 265 | 4.8 | 14.5 | 0.00 | 0.00 | 0.00 | 41 | 1015.2 |
| 20260508181525 | 18 | 273 | 4.8 | 14.5 | 0.00 | 0.00 | 0.00 | 41 | 1015.5 |
| 20260508180011 | 18 | 252 | 9.7 | 17.7 | 0.00 | 0.00 | 0.00 | 40 | 1015.6 |
| 20260508174513 | 18 | 313 | 6.4 | 12.9 | 0.00 | 0.00 | 0.00 | 42 | 1015.6 |
| 20260508173008 | 18 | 251 | 4.8 | 17.7 | 0.00 | 0.00 | 0.00 | 39 | 1015.7 |
| 20260508171506 | 18 | 257 | 11.3 | 19.3 | 0.00 | 0.00 | 0.00 | 39 | 1015.8 |
| 20260508170004 | 17 | 245 | 4.8 | 11.3 | 0.00 | 0.00 | 0.00 | 43 | 1015.7 |
| 20260508164501 | 17 | 250 | 4.8 | 8.0 | 0.00 | 0.00 | 0.00 | 43 | 1015.6 |
| 20260508163100 | 16 | 7 | 3.2 | 11.3 | 0.00 | 0.00 | 0.00 | 41 | 1015.4 |